Time,TemperatureF,DewpointF,PressureIn,WindDirection,WindDirectionDegrees,WindSpeedMPH,WindSpeedGustMPH,Humidity,HourlyPrecipIn,Conditions,Clouds,dailyrainin,SoftwareType,DateUTC
2013-07-13 17:22:00,79.2,35.9,30.03,ESE,105,0.0,0.0,21,0.00,,---,0.00,VWS V14.01,2013-07-13 22:22:00,
2013-07-13 17:27:00,79.2,35.9,30.03,ESE,109,0.0,0.0,21,0.00,,---,0.00,VWS V14.01,2013-07-13 22:27:00,
2013-07-13 17:32:00,79.0,35.8,30.03,NNE,31,0.0,0.0,21,0.00,,---,0.00,VWS V14.01,2013-07-13 22:32:00,
2013-07-13 17:37:00,78.8,35.6,30.03,SE,143,0.0,0.0,21,0.00,,---,0.00,VWS V14.01,2013-07-13 22:37:00,
2013-07-13 17:42:00,78.8,35.6,30.03,SE,134,0.0,0.0,21,0.00,,---,0.00,VWS V14.01,2013-07-13 22:42:00,
2013-07-13 17:47:00,78.6,35.5,30.03,ESE,117,0.0,0.0,21,0.00,,---,0.00,VWS V14.01,2013-07-13 22:47:00,
2013-07-13 17:52:00,78.4,35.3,30.03,SSE,168,0.0,0.0,21,0.00,,---,0.00,VWS V14.01,2013-07-13 22:52:00,
2013-07-13 17:57:00,78.4,35.3,30.03,North,10,0.0,0.0,21,0.00,,---,0.00,VWS V14.01,2013-07-13 22:57:00,
2013-07-13 18:02:00,78.3,35.2,30.03,ENE,64,0.0,0.0,21,0.00,,---,0.00,VWS V14.01,2013-07-13 23:02:00,
2013-07-13 18:07:00,78.1,35.0,30.03,SE,124,0.0,0.0,21,0.00,,---,0.00,VWS V14.01,2013-07-13 23:07:00,
2013-07-13 18:12:00,77.9,34.9,30.03,SSW,192,0.0,0.0,21,0.00,,---,0.00,VWS V14.01,2013-07-13 23:12:00,
2013-07-13 18:13:00,77.9,34.9,30.03,SE,143,0.0,0.0,21,0.00,,---,0.00,VWS V14.01,2013-07-13 23:13:00,
2013-07-13 18:22:00,79.2,35.9,30.03,ESE,105,0.0,0.0,21,0.28,,OVC,0.00,VWS V14.01,2013-07-13 23:22:00,
2013-07-13 18:23:00,79.2,35.9,30.03,ESE,105,0.0,0.0,21,0.00,,OVC,0.00,VWS V14.01,2013-07-13 23:23:00,
2013-07-13 18:24:00,79.2,35.9,30.03,SE,124,0.0,0.0,21,0.00,,OVC,0.00,VWS V14.01,2013-07-13 23:24:00,
2013-07-13 18:25:00,79.2,35.9,30.03,SE,124,0.0,0.0,21,0.00,,OVC,0.00,VWS V14.01,2013-07-13 23:25:00,
2013-07-13 18:26:00,79.2,35.9,30.03,SE,124,0.0,0.0,21,0.00,,OVC,0.00,VWS V14.01,2013-07-13 23:26:00,
2013-07-13 18:27:00,79.2,35.9,30.03,SSE,168,7.2,7.2,21,0.00,,OVC,0.00,VWS V14.01,2013-07-13 23:27:00,
2013-07-13 18:28:00,79.2,35.9,30.03,East,85,0.0,0.0,21,0.00,,OVC,0.00,VWS V14.01,2013-07-13 23:28:00,
2013-07-13 18:29:00,79.2,35.9,30.03,East,95,0.0,0.0,21,0.00,,OVC,0.00,VWS V14.01,2013-07-13 23:29:00,
2013-07-13 18:30:00,79.0,35.8,30.03,SE,128,0.0,0.0,21,0.00,,OVC,0.00,VWS V14.01,2013-07-13 23:30:00,
2013-07-13 18:31:00,79.0,35.8,30.03,SE,140,0.0,0.0,21,0.00,,OVC,0.00,VWS V14.01,2013-07-13 23:31:00,
2013-07-13 18:32:00,79.0,35.8,30.03,NNE,29,0.0,0.0,21,0.00,,OVC,0.00,VWS V14.01,2013-07-13 23:32:00,
2013-07-13 18:33:00,79.0,35.8,30.03,ESE,114,0.0,0.0,21,0.00,,OVC,0.00,VWS V14.01,2013-07-13 23:33:00,
2013-07-13 18:34:00,79.0,35.8,30.03,ESE,123,0.0,0.0,21,0.00,,OVC,0.00,VWS V14.01,2013-07-13 23:34:00,
2013-07-13 18:35:00,79.0,35.8,30.03,SSE,153,0.0,0.0,21,0.00,,OVC,0.00,VWS V14.01,2013-07-13 23:35:00,
2013-07-13 18:36:00,79.0,35.8,30.03,ENE,64,0.0,0.0,21,0.00,,OVC,0.00,VWS V14.01,2013-07-13 23:36:00,
2013-07-13 18:37:00,79.0,35.8,30.03,ENE,64,0.0,0.0,21,0.00,,OVC,0.00,VWS V14.01,2013-07-13 23:37:00,
2013-07-13 18:38:00,78.8,35.6,30.03,SE,145,0.0,0.0,21,0.00,,OVC,0.00,VWS V14.01,2013-07-13 23:38:00,
2013-07-13 18:39:00,78.8,35.6,30.03,SE,145,0.0,0.0,21,0.00,,OVC,0.00,VWS V14.01,2013-07-13 23:39:00,
2013-07-13 18:40:00,78.8,35.6,30.03,East,100,0.0,0.0,21,0.00,,OVC,0.00,VWS V14.01,2013-07-13 23:40:00,
2013-07-13 18:41:00,78.8,35.6,30.03,SE,134,0.0,0.0,21,0.00,,OVC,0.00,VWS V14.01,2013-07-13 23:41:00,
2013-07-13 18:42:00,78.8,35.6,30.03,SE,135,0.0,0.0,21,0.00,,OVC,0.00,VWS V14.01,2013-07-13 23:42:00,
2013-07-13 18:43:00,78.8,35.6,30.03,ESE,116,0.0,0.0,21,0.00,,OVC,0.00,VWS V14.01,2013-07-13 23:43:00,
2013-07-13 18:44:00,78.8,35.6,30.03,ESE,110,0.0,0.0,21,0.00,,OVC,0.00,VWS V14.01,2013-07-13 23:44:00,
2013-07-13 18:45:00,78.6,35.5,30.03,ESE,110,0.0,0.0,21,0.00,,OVC,0.00,VWS V14.01,2013-07-13 23:45:00,
2013-07-13 18:46:00,78.6,35.5,30.03,ESE,110,0.0,0.0,21,0.00,,OVC,0.00,VWS V14.01,2013-07-13 23:46:00,
2013-07-13 18:47:00,78.6,35.5,30.03,ESE,110,0.0,0.0,21,0.00,,OVC,0.00,VWS V14.01,2013-07-13 23:47:00,
2013-07-13 18:48:00,78.6,35.5,30.03,SE,136,0.0,0.0,21,0.00,,OVC,0.00,VWS V14.01,2013-07-13 23:48:00,
2013-07-13 18:49:00,78.6,35.5,30.03,SE,136,0.0,0.0,21,0.00,,OVC,0.00,VWS V14.01,2013-07-13 23:49:00,
2013-07-13 18:50:00,78.6,35.5,30.03,SE,137,0.0,0.0,21,0.00,,OVC,0.00,VWS V14.01,2013-07-13 23:50:00,
2013-07-13 18:51:00,78.6,35.5,30.03,SE,137,0.0,0.0,21,0.00,,OVC,0.00,VWS V14.01,2013-07-13 23:51:00,
2013-07-13 18:52:00,78.6,35.5,30.03,SSE,168,0.0,0.0,21,0.00,,OVC,0.00,VWS V14.01,2013-07-13 23:52:00,
2013-07-13 18:53:00,78.6,35.5,30.03,South,169,0.0,0.0,21,0.00,,OVC,0.00,VWS V14.01,2013-07-13 23:53:00,
2013-07-13 18:54:00,78.4,35.3,30.03,ESE,119,0.0,0.0,21,0.00,,OVC,0.00,VWS V14.01,2013-07-13 23:54:00,
2013-07-13 18:55:00,78.4,35.3,30.03,ESE,119,0.0,0.0,21,0.00,,OVC,0.00,VWS V14.01,2013-07-13 23:55:00,
2013-07-13 18:56:00,78.4,35.3,30.03,ESE,119,0.0,0.0,21,0.00,,OVC,0.00,VWS V14.01,2013-07-13 23:56:00,
2013-07-13 18:57:00,78.4,35.3,30.03,ESE,121,0.0,0.0,21,0.00,,OVC,0.00,VWS V14.01,2013-07-13 23:57:00,
2013-07-13 18:58:00,78.4,35.3,30.03,North,10,0.0,0.0,21,0.00,,OVC,0.00,VWS V14.01,2013-07-13 23:58:00,
2013-07-13 18:59:00,78.3,35.2,30.03,ENE,64,0.0,0.0,21,0.00,,OVC,0.00,VWS V14.01,2013-07-13 23:59:00,
2013-07-13 19:00:00,78.3,35.2,30.03,ENE,64,0.0,0.0,21,0.00,,OVC,0.00,VWS V14.01,2013-07-14 00:00:00,
2013-07-13 19:01:00,78.3,35.2,30.03,ENE,64,0.0,0.0,21,0.00,,OVC,0.00,VWS V14.01,2013-07-14 00:01:00,
2013-07-13 19:02:00,78.3,35.2,30.03,ENE,64,0.0,0.0,21,0.00,,OVC,0.00,VWS V14.01,2013-07-14 00:02:00,
2013-07-13 19:03:00,78.3,35.2,30.03,ENE,64,0.0,0.0,21,0.00,,OVC,0.00,VWS V14.01,2013-07-14 00:03:00,
2013-07-13 19:04:00,78.3,35.2,30.03,SSE,154,0.0,0.0,21,0.00,,OVC,0.00,VWS V14.01,2013-07-14 00:04:00,
2013-07-13 19:05:00,78.1,35.0,30.03,ESE,114,0.0,0.0,21,0.00,,OVC,0.00,VWS V14.01,2013-07-14 00:05:00,
2013-07-13 19:06:00,78.1,35.0,30.03,ESE,114,0.0,0.0,21,0.00,,OVC,0.00,VWS V14.01,2013-07-14 00:06:00,
2013-07-13 19:07:00,78.1,35.0,30.03,ESE,118,0.0,0.0,21,0.00,,OVC,0.00,VWS V14.01,2013-07-14 00:07:00,
2013-07-13 19:08:00,78.1,35.0,30.03,SE,140,0.0,0.0,21,0.00,,OVC,0.00,VWS V14.01,2013-07-14 00:08:00,
2013-07-13 19:09:00,78.1,35.0,30.03,SE,140,0.0,0.0,21,0.00,,OVC,0.00,VWS V14.01,2013-07-14 00:09:00,
2013-07-13 19:10:00,78.1,35.0,30.03,SE,140,0.0,0.0,21,0.00,,OVC,0.00,VWS V14.01,2013-07-14 00:10:00,
2013-07-13 19:11:00,78.1,35.0,30.03,East,90,0.0,0.0,21,0.00,,OVC,0.00,VWS V14.01,2013-07-14 00:11:00,
2013-07-13 19:12:00,77.9,34.9,30.03,SSE,154,0.0,0.0,21,0.00,,OVC,0.00,VWS V14.01,2013-07-14 00:12:00,
2013-07-13 19:13:00,77.9,34.9,30.03,SSE,164,0.0,0.0,21,0.00,,OVC,0.00,VWS V14.01,2013-07-14 00:13:00,
2013-07-13 19:17:00,76.5,34.8,30.03,SSE,158,0.0,0.0,22,0.00,,---,0.00,VWS V14.01,2013-07-14 00:17:00,
2013-07-13 19:22:00,76.1,34.5,30.03,SSE,157,0.0,0.0,22,0.00,,---,0.00,VWS V14.01,2013-07-14 00:22:00,
2013-07-13 19:27:00,76.1,34.5,30.03,NNE,23,0.0,0.0,22,0.00,,---,0.00,VWS V14.01,2013-07-14 00:27:00,
2013-07-13 19:32:00,75.9,35.5,30.03,NNE,23,0.0,0.0,23,0.00,,---,0.00,VWS V14.01,2013-07-14 00:32:00,
2013-07-13 19:37:00,75.7,35.3,30.03,NNE,25,0.0,0.0,23,0.00,,---,0.00,VWS V14.01,2013-07-14 00:37:00,
2013-07-13 19:42:00,75.6,35.2,30.03,SSW,204,0.0,0.0,23,0.00,,---,0.00,VWS V14.01,2013-07-14 00:42:00,
2013-07-13 19:47:00,75.4,35.0,30.03,SSW,204,0.0,0.0,23,0.00,,---,0.00,VWS V14.01,2013-07-14 00:47:00,
2013-07-13 19:52:00,75.2,34.9,30.03,South,187,0.0,0.0,23,0.00,,---,0.00,VWS V14.01,2013-07-14 00:52:00,
2013-07-13 19:57:00,75.0,35.8,30.03,South,187,0.0,0.0,24,0.00,,---,0.00,VWS V14.01,2013-07-14 00:57:00,
2013-07-13 20:02:00,74.8,35.7,30.03,South,187,0.0,0.0,24,0.00,,---,0.00,VWS V14.01,2013-07-14 01:02:00,
2013-07-13 20:07:00,74.7,35.5,30.03,South,187,0.0,0.0,24,0.00,,---,0.00,VWS V14.01,2013-07-14 01:07:00,
2013-07-13 20:12:00,74.3,36.2,30.03,South,187,0.0,0.0,25,0.00,,---,0.00,VWS V14.01,2013-07-14 01:12:00,
2013-07-13 20:17:00,74.1,36.1,30.03,South,187,0.0,0.0,25,0.00,,---,0.00,VWS V14.01,2013-07-14 01:17:00,
2013-07-13 20:18:00,76.3,34.7,30.03,SSE,158,0.0,0.0,22,0.00,,OVC,0.00,VWS V14.01,2013-07-14 01:18:00,
2013-07-13 20:19:00,76.3,34.7,30.03,SSE,158,0.0,0.0,22,0.00,,OVC,0.00,VWS V14.01,2013-07-14 01:19:00,
2013-07-13 20:20:00,76.3,34.7,30.03,SSE,158,0.0,0.0,22,0.00,,OVC,0.00,VWS V14.01,2013-07-14 01:20:00,
2013-07-13 20:21:00,76.1,34.5,30.03,SSE,157,0.0,0.0,22,0.00,,OVC,0.00,VWS V14.01,2013-07-14 01:21:00,
2013-07-13 20:22:00,73.9,35.9,30.03,South,187,0.0,0.0,25,0.00,,---,0.00,VWS V14.01,2013-07-14 01:22:00,
2013-07-13 20:24:00,76.1,34.5,30.03,North,11,0.0,0.0,22,0.00,,OVC,0.00,VWS V14.01,2013-07-14 01:24:00,
2013-07-13 20:25:00,76.1,34.5,30.03,NNE,23,0.0,0.0,22,0.00,,OVC,0.00,VWS V14.01,2013-07-14 01:25:00,
2013-07-13 20:27:00,73.8,35.8,30.03,South,187,0.0,0.0,25,0.00,,---,0.00,VWS V14.01,2013-07-14 01:27:00,
2013-07-13 20:28:00,76.1,34.5,30.03,NNE,23,0.0,0.0,22,0.00,,OVC,0.00,VWS V14.01,2013-07-14 01:28:00,
2013-07-13 20:29:00,75.9,34.4,30.03,NNE,23,0.0,0.0,22,0.00,,OVC,0.00,VWS V14.01,2013-07-14 01:29:00,
2013-07-13 20:30:00,75.9,35.5,30.03,NNE,23,0.0,0.0,23,0.00,,OVC,0.00,VWS V14.01,2013-07-14 01:30:00,
2013-07-13 20:31:00,75.9,35.5,30.03,NNE,23,0.0,0.0,23,0.00,,OVC,0.00,VWS V14.01,2013-07-14 01:31:00,
2013-07-13 20:32:00,73.4,36.5,30.03,South,187,0.0,0.0,26,0.00,,---,0.00,VWS V14.01,2013-07-14 01:32:00,
2013-07-13 20:33:00,75.9,35.5,30.03,NNE,23,0.0,0.0,23,0.00,,OVC,0.00,VWS V14.01,2013-07-14 01:33:00,
2013-07-13 20:34:00,75.7,35.3,30.03,NNE,25,0.0,0.0,23,0.00,,OVC,0.00,VWS V14.01,2013-07-14 01:34:00,
2013-07-13 20:35:00,75.7,35.3,30.03,NNE,25,0.0,0.0,23,0.00,,OVC,0.00,VWS V14.01,2013-07-14 01:35:00,
2013-07-13 20:36:00,75.7,35.3,30.03,NNE,25,0.0,0.0,23,0.00,,OVC,0.00,VWS V14.01,2013-07-14 01:36:00,
2013-07-13 20:37:00,73.2,37.3,30.03,South,187,0.0,0.0,27,0.00,,---,0.00,VWS V14.01,2013-07-14 01:37:00,
2013-07-13 20:38:00,75.7,35.3,30.03,NNE,25,0.0,0.0,23,0.00,,OVC,0.00,VWS V14.01,2013-07-14 01:38:00,
2013-07-13 20:39:00,75.7,35.3,30.03,NE,56,0.0,0.0,23,0.00,,OVC,0.00,VWS V14.01,2013-07-14 01:39:00,
2013-07-13 20:40:00,75.7,35.3,30.03,SW,235,0.0,0.0,23,0.00,,OVC,0.00,VWS V14.01,2013-07-14 01:40:00,
2013-07-13 20:41:00,75.6,35.2,30.03,SW,235,0.0,0.0,23,0.00,,OVC,0.00,VWS V14.01,2013-07-14 01:41:00,
2013-07-13 20:42:00,73.0,37.1,30.03,South,187,0.0,0.0,27,0.00,,---,0.00,VWS V14.01,2013-07-14 01:42:00,
2013-07-13 20:43:00,75.6,35.2,30.03,SSW,204,0.0,0.0,23,0.00,,OVC,0.00,VWS V14.01,2013-07-14 01:43:00,
2013-07-13 20:44:00,75.6,35.2,30.03,SSW,204,0.0,0.0,23,0.00,,OVC,0.00,VWS V14.01,2013-07-14 01:44:00,
2013-07-13 20:45:00,75.6,35.2,30.03,SSW,204,0.0,0.0,23,0.00,,OVC,0.00,VWS V14.01,2013-07-14 01:45:00,
2013-07-13 20:46:00,75.4,35.0,30.03,SSW,204,0.0,0.0,23,0.00,,OVC,0.00,VWS V14.01,2013-07-14 01:46:00,
2013-07-13 20:47:00,72.7,37.7,30.03,South,187,0.0,0.0,28,0.00,,---,0.00,VWS V14.01,2013-07-14 01:47:00,
2013-07-13 20:48:00,75.4,35.0,30.03,SSW,204,0.0,0.0,23,0.00,,OVC,0.00,VWS V14.01,2013-07-14 01:48:00,
2013-07-13 20:49:00,75.4,35.0,30.03,SSW,204,0.0,0.0,23,0.00,,OVC,0.00,VWS V14.01,2013-07-14 01:49:00,
2013-07-13 20:50:00,75.4,35.0,30.03,SSW,204,0.0,0.0,23,0.00,,OVC,0.00,VWS V14.01,2013-07-14 01:50:00,
2013-07-13 20:51:00,75.4,35.0,30.03,SSW,204,0.0,0.0,23,0.00,,OVC,0.00,VWS V14.01,2013-07-14 01:51:00,
2013-07-13 20:52:00,72.3,38.3,30.00,South,187,0.0,0.0,29,0.00,,---,0.00,VWS V14.01,2013-07-14 01:52:00,
2013-07-13 20:53:00,75.2,34.9,30.03,South,187,0.0,0.0,23,0.00,,OVC,0.00,VWS V14.01,2013-07-14 01:53:00,
2013-07-13 20:54:00,75.2,34.9,30.03,South,187,0.0,0.0,23,0.00,,OVC,0.00,VWS V14.01,2013-07-14 01:54:00,
2013-07-13 20:55:00,75.2,34.9,30.03,South,187,0.0,0.0,23,0.00,,OVC,0.00,VWS V14.01,2013-07-14 01:55:00,
2013-07-13 20:56:00,75.2,34.9,30.03,South,187,0.0,0.0,23,0.00,,OVC,0.00,VWS V14.01,2013-07-14 01:56:00,
2013-07-13 20:57:00,72.3,38.3,30.00,South,187,0.0,0.0,29,0.00,,---,0.00,VWS V14.01,2013-07-14 01:57:00,
2013-07-13 20:58:00,75.0,35.8,30.03,South,187,0.0,0.0,24,0.00,,OVC,0.00,VWS V14.01,2013-07-14 01:58:00,
2013-07-13 20:59:00,75.0,35.8,30.03,South,187,0.0,0.0,24,0.00,,OVC,0.00,VWS V14.01,2013-07-14 01:59:00,
2013-07-13 21:00:00,75.0,35.8,30.03,South,187,0.0,0.0,24,0.00,,OVC,0.00,VWS V14.01,2013-07-14 02:00:00,
2013-07-13 21:01:00,75.0,35.8,30.03,South,187,0.0,0.0,24,0.00,,OVC,0.00,VWS V14.01,2013-07-14 02:01:00,
2013-07-13 21:02:00,72.0,38.0,30.00,South,187,0.0,0.0,29,0.00,,---,0.00,VWS V14.01,2013-07-14 02:02:00,
2013-07-13 21:03:00,74.8,35.7,30.03,South,187,0.0,0.0,24,0.00,,OVC,0.00,VWS V14.01,2013-07-14 02:03:00,
2013-07-13 21:04:00,74.8,35.7,30.03,South,187,0.0,0.0,24,0.00,,OVC,0.00,VWS V14.01,2013-07-14 02:04:00,
2013-07-13 21:05:00,74.7,35.5,30.03,South,187,0.0,0.0,24,0.00,,OVC,0.00,VWS V14.01,2013-07-14 02:05:00,
2013-07-13 21:06:00,74.7,35.5,30.03,South,187,0.0,0.0,24,0.00,,OVC,0.00,VWS V14.01,2013-07-14 02:06:00,
2013-07-13 21:07:00,71.8,38.7,30.03,South,187,0.0,0.0,30,0.00,,---,0.00,VWS V14.01,2013-07-14 02:07:00,
2013-07-13 21:08:00,74.7,36.5,30.03,South,187,0.0,0.0,25,0.00,,OVC,0.00,VWS V14.01,2013-07-14 02:08:00,
2013-07-13 21:09:00,74.5,36.4,30.03,South,187,0.0,0.0,25,0.00,,OVC,0.00,VWS V14.01,2013-07-14 02:09:00,
2013-07-13 21:10:00,74.5,36.4,30.03,South,187,0.0,0.0,25,0.00,,OVC,0.00,VWS V14.01,2013-07-14 02:10:00,
2013-07-13 21:11:00,74.5,36.4,30.03,South,187,0.0,0.0,25,0.00,,OVC,0.00,VWS V14.01,2013-07-14 02:11:00,
2013-07-13 21:12:00,71.6,38.6,30.03,South,187,0.0,0.0,30,0.00,,---,0.00,VWS V14.01,2013-07-14 02:12:00,
2013-07-13 21:13:00,74.3,36.2,30.03,South,187,0.0,0.0,25,0.00,,OVC,0.00,VWS V14.01,2013-07-14 02:13:00,
2013-07-13 21:14:00,74.3,36.2,30.03,South,187,0.0,0.0,25,0.00,,OVC,0.00,VWS V14.01,2013-07-14 02:14:00,
2013-07-13 21:15:00,71.4,38.4,30.03,South,187,0.0,0.0,30,0.00,,---,0.00,VWS V14.01,2013-07-14 02:15:00,
2013-07-13 21:16:00,74.1,36.1,30.03,South,187,0.0,0.0,25,0.00,,OVC,0.00,VWS V14.01,2013-07-14 02:16:00,
2013-07-13 21:17:00,74.1,36.1,30.03,South,187,0.0,0.0,25,0.00,,OVC,0.00,VWS V14.01,2013-07-14 02:17:00,
2013-07-13 21:18:00,74.1,36.1,30.03,South,187,0.0,0.0,25,0.00,,OVC,0.00,VWS V14.01,2013-07-14 02:18:00,
2013-07-13 21:19:00,74.1,36.1,30.03,South,187,0.0,0.0,25,0.00,,OVC,0.00,VWS V14.01,2013-07-14 02:19:00,
2013-07-13 21:20:00,73.9,35.9,30.03,South,187,0.0,0.0,25,0.00,,OVC,0.00,VWS V14.01,2013-07-14 02:20:00,
2013-07-13 21:21:00,73.9,35.9,30.03,South,187,0.0,0.0,25,0.00,,OVC,0.00,VWS V14.01,2013-07-14 02:21:00,
2013-07-13 21:22:00,73.9,35.9,30.03,South,187,0.0,0.0,25,0.00,,OVC,0.00,VWS V14.01,2013-07-14 02:22:00,
2013-07-13 21:23:00,73.9,35.9,30.03,South,187,0.0,0.0,25,0.00,,OVC,0.00,VWS V14.01,2013-07-14 02:23:00,
2013-07-13 21:24:00,73.8,35.8,30.03,South,187,0.0,0.0,25,0.00,,OVC,0.00,VWS V14.01,2013-07-14 02:24:00,
2013-07-13 21:25:00,73.8,35.8,30.03,South,187,0.0,0.0,25,0.00,,OVC,0.00,VWS V14.01,2013-07-14 02:25:00,
2013-07-13 21:26:00,73.8,35.8,30.03,South,187,0.0,0.0,25,0.00,,OVC,0.00,VWS V14.01,2013-07-14 02:26:00,
2013-07-13 21:27:00,73.8,35.8,30.03,South,187,0.0,0.0,25,0.00,,OVC,0.00,VWS V14.01,2013-07-14 02:27:00,
2013-07-13 21:28:00,73.6,35.6,30.03,South,187,0.0,0.0,25,0.00,,OVC,0.00,VWS V14.01,2013-07-14 02:28:00,
2013-07-13 21:29:00,73.6,35.6,30.03,South,187,0.0,0.0,25,0.00,,OVC,0.00,VWS V14.01,2013-07-14 02:29:00,
2013-07-13 21:30:00,73.6,35.6,30.03,South,187,0.0,0.0,25,0.00,,OVC,0.00,VWS V14.01,2013-07-14 02:30:00,
2013-07-13 21:31:00,73.6,36.6,30.03,South,187,0.0,0.0,26,0.00,,OVC,0.00,VWS V14.01,2013-07-14 02:31:00,
2013-07-13 21:32:00,73.6,36.6,30.03,South,187,0.0,0.0,26,0.00,,OVC,0.00,VWS V14.01,2013-07-14 02:32:00,
2013-07-13 21:33:00,73.4,36.5,30.03,South,187,0.0,0.0,26,0.00,,OVC,0.00,VWS V14.01,2013-07-14 02:33:00,
2013-07-13 21:34:00,73.4,36.5,30.03,South,187,0.0,0.0,26,0.00,,OVC,0.00,VWS V14.01,2013-07-14 02:34:00,
2013-07-13 21:35:00,73.4,36.5,30.03,South,187,0.0,0.0,26,0.00,,OVC,0.00,VWS V14.01,2013-07-14 02:35:00,
2013-07-13 21:36:00,73.4,36.5,30.03,South,187,0.0,0.0,26,0.00,,OVC,0.00,VWS V14.01,2013-07-14 02:36:00,
2013-07-13 21:37:00,73.2,37.3,30.03,South,187,0.0,0.0,27,0.00,,OVC,0.00,VWS V14.01,2013-07-14 02:37:00,
2013-07-13 21:38:00,73.2,37.3,30.03,South,187,0.0,0.0,27,0.00,,OVC,0.00,VWS V14.01,2013-07-14 02:38:00,
2013-07-13 21:39:00,73.2,37.3,30.03,South,187,0.0,0.0,27,0.00,,OVC,0.00,VWS V14.01,2013-07-14 02:39:00,
2013-07-13 21:40:00,73.2,37.3,30.03,South,187,0.0,0.0,27,0.00,,OVC,0.00,VWS V14.01,2013-07-14 02:40:00,
2013-07-13 21:41:00,73.0,37.1,30.03,South,187,0.0,0.0,27,0.00,,OVC,0.00,VWS V14.01,2013-07-14 02:41:00,
2013-07-13 21:42:00,73.0,37.1,30.03,South,187,0.0,0.0,27,0.00,,OVC,0.00,VWS V14.01,2013-07-14 02:42:00,
2013-07-13 21:43:00,72.9,37.0,30.03,South,187,0.0,0.0,27,0.00,,OVC,0.00,VWS V14.01,2013-07-14 02:43:00,
2013-07-13 21:44:00,72.9,37.0,30.03,South,187,0.0,0.0,27,0.00,,OVC,0.00,VWS V14.01,2013-07-14 02:44:00,
2013-07-13 21:45:00,72.9,37.0,30.03,South,187,0.0,0.0,27,0.00,,OVC,0.00,VWS V14.01,2013-07-14 02:45:00,
2013-07-13 21:46:00,72.9,37.9,30.03,South,187,0.0,0.0,28,0.00,,OVC,0.00,VWS V14.01,2013-07-14 02:46:00,
2013-07-13 21:47:00,72.7,37.7,30.03,South,187,0.0,0.0,28,0.00,,OVC,0.00,VWS V14.01,2013-07-14 02:47:00,
2013-07-13 21:48:00,72.7,37.7,30.03,South,187,0.0,0.0,28,0.00,,OVC,0.00,VWS V14.01,2013-07-14 02:48:00,
2013-07-13 21:49:00,72.7,37.7,30.03,South,187,0.0,0.0,28,0.00,,OVC,0.00,VWS V14.01,2013-07-14 02:49:00,
2013-07-13 21:50:00,72.5,38.5,30.00,South,187,0.0,0.0,29,0.00,,OVC,0.00,VWS V14.01,2013-07-14 02:50:00,
2013-07-13 21:51:00,72.5,38.5,30.00,South,187,0.0,0.0,29,0.00,,OVC,0.00,VWS V14.01,2013-07-14 02:51:00,
2013-07-13 21:52:00,72.5,38.5,30.00,South,187,0.0,0.0,29,0.00,,OVC,0.00,VWS V14.01,2013-07-14 02:52:00,
2013-07-13 21:53:00,72.3,38.3,30.00,South,187,0.0,0.0,29,0.00,,OVC,0.00,VWS V14.01,2013-07-14 02:53:00,
2013-07-13 21:54:00,72.3,38.3,30.00,South,187,0.0,0.0,29,0.00,,OVC,0.00,VWS V14.01,2013-07-14 02:54:00,
2013-07-13 21:55:00,72.3,38.3,30.00,South,187,0.0,0.0,29,0.00,,OVC,0.00,VWS V14.01,2013-07-14 02:55:00,
2013-07-13 21:56:00,72.3,38.3,30.00,South,187,0.0,0.0,29,0.00,,OVC,0.00,VWS V14.01,2013-07-14 02:56:00,
2013-07-13 21:57:00,72.3,38.3,30.00,South,187,0.0,0.0,29,0.00,,OVC,0.00,VWS V14.01,2013-07-14 02:57:00,
2013-07-13 21:58:00,72.1,38.2,30.00,South,187,0.0,0.0,29,0.00,,OVC,0.00,VWS V14.01,2013-07-14 02:58:00,
2013-07-13 21:59:00,72.1,38.2,30.00,South,187,0.0,0.0,29,0.00,,OVC,0.00,VWS V14.01,2013-07-14 02:59:00,
2013-07-13 22:00:00,72.1,38.2,30.00,South,187,0.0,0.0,29,0.00,,OVC,0.00,VWS V14.01,2013-07-14 03:00:00,
2013-07-13 22:01:00,72.1,38.2,30.00,South,187,0.0,0.0,29,0.00,,OVC,0.00,VWS V14.01,2013-07-14 03:01:00,
2013-07-13 22:02:00,72.1,38.2,30.00,South,187,0.0,0.0,29,0.00,,OVC,0.00,VWS V14.01,2013-07-14 03:02:00,
2013-07-13 22:03:00,72.0,38.0,30.00,South,187,0.0,0.0,29,0.00,,OVC,0.00,VWS V14.01,2013-07-14 03:03:00,
2013-07-13 22:04:00,72.0,38.0,30.00,South,187,0.0,0.0,29,0.00,,OVC,0.00,VWS V14.01,2013-07-14 03:04:00,
2013-07-13 22:05:00,72.0,38.0,30.03,South,187,0.0,0.0,29,0.00,,OVC,0.00,VWS V14.01,2013-07-14 03:05:00,
2013-07-13 22:06:00,71.8,37.8,30.03,South,187,0.0,0.0,29,0.00,,OVC,0.00,VWS V14.01,2013-07-14 03:06:00,
2013-07-13 22:07:00,71.8,37.8,30.03,South,186,0.0,0.0,29,0.00,,OVC,0.00,VWS V14.01,2013-07-14 03:07:00,
2013-07-13 22:08:00,71.8,38.7,30.03,South,187,0.0,0.0,30,0.00,,OVC,0.00,VWS V14.01,2013-07-14 03:08:00,
2013-07-13 22:09:00,71.8,38.7,30.03,South,187,0.0,0.0,30,0.00,,OVC,0.00,VWS V14.01,2013-07-14 03:09:00,
2013-07-13 22:10:00,71.8,38.7,30.03,South,187,0.0,0.0,30,0.00,,OVC,0.00,VWS V14.01,2013-07-14 03:10:00,
2013-07-13 22:11:00,71.8,38.7,30.03,South,187,0.0,0.0,30,0.00,,OVC,0.00,VWS V14.01,2013-07-14 03:11:00,
2013-07-13 22:12:00,71.6,38.6,30.03,South,187,0.0,0.0,30,0.00,,OVC,0.00,VWS V14.01,2013-07-14 03:12:00,
2013-07-13 22:13:00,71.6,38.6,30.03,South,187,0.0,0.0,30,0.00,,OVC,0.00,VWS V14.01,2013-07-14 03:13:00,
2013-07-13 22:14:00,71.6,38.6,30.03,South,187,0.0,0.0,30,0.00,,OVC,0.00,VWS V14.01,2013-07-14 03:14:00,
2013-07-13 22:15:00,71.6,38.6,30.03,South,187,0.0,0.0,30,0.00,,OVC,0.00,VWS V14.01,2013-07-14 03:15:00,